Temperature
5 4 3 3 2 1 0 -1 -3 -4 -4 -2 -3 -3 -3 -4 -4 -5 -5 -5 -6 -6 -6 -6 -6 -5 -5 -5 -5 -5 -5 -5 -4 -4 -4 -4 -3 -3
4 3 3 2 1 0 -0 -1 -3 -4 -5 -5 -4 -5 -5 -5 -5 -6 -6 -6 -6 -6 -6 -6 -6 -6 -6 -6 -6 -5 -5 -5 -5 -4 -4 -4 -3 -3
3 2 2 1 0 -1 -1 -2 -3 -5 -6 -5 -5 -6 -6 -6 -6 -6 -7 -7 -7 -7 -7 -6 -6 -6 -6 -6 -6 -6 -5 -5 -5 -5 -5 -4 -4 -4
2 1 1 -0 -1 -2 -3 -4 -5 -5 -6 -7 -7 -7 -7 -7 -7 -7 -7 -7 -7 -7 -7 -7 -7 -7 -7 -6 -6 -6 -6 -6 -6 -5 -5 -5 -5 -5
1 0 -0 -1 -2 -3 -4 -5 -6 -6 -7 -8 -8 -8 -8 -8 -8 -8 -8 -8 -8 -8 -8 -7 -7 -7 -7 -7 -7 -6 -6 -6 -6 -6 -6 -6 -5 -5
0 -1 -1 -2 -3 -4 -5 -6 -7 -7 -8 -8 -8 -8 -8 -8 -8 -8 -8 -8 -8 -8 -8 -7 -7 -7 -7 -7 -7 -7 -7 -7 -6 -6 -6 -6 -6 -5
-0 -1 -2 -3 -4 -5 -6 -7 -7 -8 -8 -8 -8 -8 -8 -8 -8 -8 -9 -9 -8 -8 -8 -7 -7 -7 -6 -6 -6 -6 -7 -7 -6 -6 -6 -5 -5 -5
-1 -2 -3 -4 -5 -6 -7 -7 -8 -8 -8 -8 -8 -8 -8 -9 -9 -9 -9 -9 -9 -8 -9 -8 -8 -7 -7 -7 -6 -7 -7 -6 -6 -5 -5 -5 -5 -5
-2 -4 -5 -5 -6 -7 -8 -8 -8 -9 -9 -9 -9 -9 -9 -9 -9 -9 -9 -9 -9 -9 -9 -9 -8 -8 -7 -7 -6 -6 -6 -5 -5 -5 -5 -5 -5 -5
-4 -5 -6 -7 -7 -8 -8 -8 -8 -8 -9 -9 -9 -9 -9 -9 -9 -9 -9 -9 -9 -8 -9 -9 -8 -8 -7 -6 -5 -5 -5 -6 -6 -5 -5 -5 -5 -5
-5 -6 -7 -8 -8 -8 -8 -8 -9 -8 -9 -9 -9 -9 -9 -9 -9 -9 -9 -10 -10 -9 -8 -9 -8 -9 -8 -6 -5 -5 -5 -5 -4 -4 -4 -5 -5 -5
-6 -7 -7 -8 -8 -8 -9 -9 -9 -9 -9 -9 -8 -8 -8 -8 -8 -9 -9 -10 -10 -10 -8 -9 -10 -10 -10 -7 -6 -5 -5 -4 -4 -4 -4 -4 -5 -5
-8 -8 -8 -9 -9 -9 -9 -9 -9 -9 -9 -9 -9 -8 -8 -8 -8 -8 -9 -10 -10 -10 -9 -10 -10 -10 -11 -10 -7 -5 -5 -4 -4 -3 -4 -4 -5 -5
-9 -9 -9 -9 -9 -9 -9 -9 -9 -9 -9 -9 -9 -9 -8 -8 -8 -8 -8 -8 -9 -9 -8 -9 -10 -10 -11 -11 -10 -6 -5 -4 -4 -4 -5 -5 -5 -5
-9 -9 -9 -9 -9 -9 -9 -10 -10 -9 -9 -9 -9 -9 -8 -8 -8 -8 -7 -8 -8 -7 -8 -8 -9 -10 -10 -10 -10 -8 -7 -5 -5 -5 -6 -6 -6 -6
-9 -9 -9 -9 -9 -10 -9 -9 -9 -9 -10 -10 -9 -8 -8 -8 -8 -8 -8 -8 -8 -7 -7 -8 -9 -9 -10 -9 -9 -8 -7 -7 -6 -7 -7 -6 -6 -5
-10 -10 -9 -9 -9 -9 -9 -9 -9 -9 -9 -9 -9 -9 -8 -8 -8 -8 -9 -9 -9 -9 -7 -7 -8 -8 -8 -8 -8 -7 -6 -7 -7 -7 -7 -7 -6 -5
-10 -10 -10 -10 -9 -9 -9 -9 -8 -9 -9 -9 -9 -9 -9 -9 -8 -8 -8 -9 -9 -9 -9 -8 -8 -8 -8 -8 -7 -7 -7 -7 -7 -7 -7 -6 -6 -5
-10 -10 -10 -10 -9 -9 -9 -9 -9 -8 -9 -9 -8 -8 -8 -9 -9 -8 -8 -9 -9 -9 -8 -8 -9 -9 -9 -9 -7 -6 -7 -7 -7 -7 -6 -6 -6 -5
-10 -10 -10 -10 -9 -9 -9 -9 -9 -8 -8 -8 -8 -8 -8 -9 -9 -8 -8 -9 -9 -9 -9 -8 -8 -9 -9 -8 -8 -6 -5 -7 -7 -7 -6 -6 -6 -5
-10 -10 -10 -9 -9 -9 -9 -9 -8 -8 -8 -8 -8 -8 -8 -8 -8 -8 -8 -8 -9 -9 -9 -8 -8 -8 -8 -8 -8 -7 -6 -6 -6 -6 -6 -6 -6 -5
-10 -10 -9 -9 -9 -9 -9 -8 -8 -8 -8 -8 -8 -8 -8 -8 -8 -8 -8 -8 -8 -8 -8 -8 -8 -8 -8 -8 -8 -7 -7 -5 -5 -5 -5 -6 -5 -5
-10 -9 -9 -9 -9 -8 -8 -8 -8 -8 -8 -8 -8 -8 -8 -8 -8 -8 -8 -8 -8 -8 -8 -8 -8 -8 -8 -7 -7 -7 -7 -6 -6 -5 -5 -5 -5 -5
Wind_Speed
2 1 1 2 2 2 2 2 4 5 5 5 4 5 13 15 19 19 18 26 30 31 32 32 32 32 32 32 33 33 32 32 32 32 32 33 33 33
2 1 2 2 2 2 3 3 4 7 9 4 6 8 10 16 23 22 22 30 30 31 32 32 33 33 33 33 34 33 33 33 33 32 32 33 33 33
2 3 3 3 3 3 3 4 5 6 12 10 6 7 9 11 14 18 21 20 22 29 31 32 33 33 33 34 34 34 33 33 33 33 32 32 32 33
3 3 4 3 3 4 4 5 5 6 9 14 9 7 10 11 12 12 15 20 19 27 30 31 32 33 33 33 34 33 33 33 32 32 32 32 32 32
3 4 4 4 5 4 5 5 5 8 7 11 12 8 9 11 12 13 13 10 18 23 27 29 30 32 33 33 33 33 33 32 32 31 31 30 31 31
4 5 5 5 6 6 5 6 7 7 8 9 12 11 10 10 10 10 12 8 11 16 22 26 28 31 32 33 33 33 32 31 30 30 30 30 30 30
6 6 5 7 10 9 8 6 7 7 8 10 13 13 12 10 10 9 13 12 11 12 12 12 13 14 16 25 28 30 31 31 30 30 30 30 30 30
7 7 6 7 11 15 17 17 15 12 10 11 13 14 14 12 10 11 13 16 16 6 9 15 12 14 13 10 25 31 31 31 31 30 29 28 28 29
8 7 6 7 11 6 12 17 16 21 22 16 15 15 14 12 11 13 14 16 17 12 12 18 13 15 13 16 29 31 32 31 30 28 27 27 28 29
7 7 6 6 8 11 8 8 8 11 17 14 12 13 13 11 13 16 16 14 14 11 9 15 16 15 15 12 26 31 29 27 26 27 29 29 29 29
7 7 9 8 16 19 11 9 11 11 18 22 24 24 28 28 21 12 10 12 16 14 7 7 10 14 15 14 16 21 23 26 29 29 29 29 29 28
6 7 14 16 19 20 12 11 14 12 12 14 16 19 16 17 22 11 8 12 14 11 4 4 8 9 9 6 6 9 15 23 28 28 28 29 29 19
6 6 8 19 21 23 21 12 16 17 10 10 11 11 10 9 9 9 9 10 13 13 10 8 10 8 9 10 10 10 12 12 14 18 23 26 27 22
7 6 9 21 23 24 18 18 22 19 8 9 10 10 10 11 11 12 12 12 13 17 16 15 13 13 14 17 14 12 11 12 13 14 13 19 22 26
9 16 20 23 22 14 16 20 16 8 8 9 10 11 9 10 11 12 12 12 13 14 14 14 14 14 14 15 15 16 17 15 12 10 11 14 14 14
9 14 19 20 15 14 13 11 8 8 10 9 10 11 10 10 11 11 12 12 12 13 10 11 13 14 14 15 16 18 16 11 12 14 14 15 14 12
11 6 6 7 6 7 7 7 7 8 9 9 11 11 12 12 12 10 10 11 12 14 15 11 9 11 14 16 16 16 15 14 13 13 15 16 15 12
11 6 7 7 8 9 10 11 10 10 10 10 11 11 12 12 13 12 11 11 13 13 14 14 13 14 10 9 15 14 12 13 14 15 14 15 16 13
6 6 7 8 9 9 9 10 11 11 10 10 11 11 11 12 12 12 12 12 12 13 13 12 12 12 15 16 8 10 11 15 15 15 13 13 16 15
5 7 8 8 9 9 10 10 11 11 10 10 11 11 11 11 12 12 12 13 13 14 14 12 10 11 13 15 15 16 14 13 14 16 15 13 12 16
7 8 8 9 9 10 10 10 11 12 12 12 12 12 11 11 12 12 13 18 16 13 14 14 13 19 13 11 12 12 11 13 15 15 16 15 14 11
8 9 9 9 10 10 10 10 11 12 12 11 12 12 11 11 12 14 13 13 13 13 14 13 12 12 10 12 14 14 15 15 15 19 18 16 12 10
9 9 10 10 9 9 10 11 12 12 12 12 12 12 12 12 12 12 13 13 13 13 14 13 12 10 11 11 13 14 16 16 13 14 13 17 20 20
Wind_Direction
171 173 224 252 253 256 259 249 260 287 292 278 290 327 329 316 311 309 303 304 303 302 302 302 300 299 298 298 297 295 293 290 288 285 283 280 278 276
159 192 266 265 272 269 264 263 253 270 283 278 295 299 307 309 306 306 303 302 301 300 299 299 299 299 298 297 296 295 293 291 288 286 284 282 280 278
241 234 253 263 269 275 280 277 270 269 283 289 283 294 298 296 297 295 295 292 292 298 299 299 298 299 298 297 296 294 293 291 289 288 286 284 282 280
271 276 278 283 282 277 273 271 273 274 284 295 297 296 292 292 293 291 298 298 296 299 300 300 301 300 298 297 296 295 294 292 291 289 287 285 283 281
273 267 270 277 278 274 277 280 282 290 286 295 299 297 294 294 294 293 292 292 297 300 302 301 299 298 298 299 299 298 296 294 292 289 287 284 282 279
289 272 261 256 259 264 276 273 279 282 284 290 295 296 293 288 289 297 300 289 295 300 297 296 296 299 298 298 297 296 295 293 291 289 287 284 281 278
304 290 278 281 288 289 287 275 281 282 287 292 294 296 296 299 298 298 302 302 293 288 288 290 294 291 291 292 294 293 293 292 292 292 290 287 284 281
303 297 296 297 298 302 304 304 302 300 300 296 296 296 297 296 295 298 300 302 300 278 291 297 292 290 289 284 292 295 297 297 296 295 292 289 286 283
290 291 296 298 308 300 296 299 299 299 299 297 295 294 294 294 292 294 292 291 292 295 298 296 294 292 290 292 297 297 298 297 295 294 294 293 290 286
298 297 295 292 293 299 287 289 283 291 292 293 286 287 291 290 285 289 291 292 289 285 279 290 296 295 296 291 294 293 294 295 298 300 298 295 292 289
314 319 319 303 304 309 311 302 297 293 300 299 299 300 300 301 303 303 301 301 299 297 285 277 290 301 298 290 285 290 295 300 299 298 297 296 295 294
312 312 314 312 310 314 312 303 303 301 298 300 301 300 297 297 303 301 299 299 298 298 279 284 295 312 304 271 266 287 294 295 297 297 298 298 296 294
300 299 301 311 312 312 311 304 301 305 302 302 302 299 298 297 298 293 291 291 292 287 290 299 292 289 283 293 295 288 287 290 296 296 297 296 295 294
309 302 305 313 313 313 313 308 308 313 307 303 300 300 301 302 302 300 294 285 275 277 283 286 286 288 289 290 294 297 294 292 292 292 290 291 294 296
311 315 316 316 316 313 310 313 318 314 303 300 300 299 296 295 299 300 296 289 283 278 275 271 273 278 278 282 286 291 298 299 288 283 290 294 295 296
308 310 316 315 315 316 318 318 312 302 306 302 302 300 300 301 301 301 303 306 304 299 278 257 262 271 279 280 282 286 288 286 290 294 295 296 293 287
314 310 309 310 317 318 314 309 308 309 309 305 303 303 304 304 302 303 300 303 300 301 306 304 280 270 269 274 281 281 284 287 289 295 300 299 295 289
327 322 317 319 318 317 316 315 313 311 308 306 303 300 301 301 303 303 301 300 299 300 301 305 308 307 297 268 248 266 281 290 296 296 293 296 298 297
339 320 314 312 311 310 309 308 307 306 305 302 300 299 300 300 300 301 302 301 300 299 299 300 303 307 312 313 286 243 277 296 300 299 296 296 296 297
318 310 309 308 308 308 306 305 304 304 304 302 300 299 298 298 299 299 300 300 302 302 303 302 300 304 304 303 301 299 287 288 300 304 305 300 291 287
314 310 307 306 304 303 302 301 300 300 300 301 299 298 298 298 297 298 299 302 304 303 304 305 300 303 300 296 297 301 301 292 293 301 307 307 307 303
310 308 306 303 302 301 300 299 300 299 300 299 297 297 296 296 296 298 300 302 302 301 301 302 303 307 307 307 308 308 310 313 309 305 301 297 306 310
308 306 304 302 300 298 298 297 296 296 296 295 295 296 297 299 299 298 298 299 301 304 309 313 315 315 312 309 309 311 312 318 320 322 317 315 317 314
Height
1491 1490 1489 1488 1486 1485 1483 1480 1478 1470 1463 1462 1461 1460 1458 1454 1450 1446 1441 1437 1433 1429 1425 1421 1417 1413 1409 1405 1402 1398 1395 1393 1390 1388 1386 1384 1383 1381
1487 1486 1485 1483 1482 1480 1478 1475 1473 1468 1461 1455 1455 1453 1450 1446 1443 1438 1434 1429 1425 1421 1417 1413 1409 1405 1401 1396 1392 1389 1385 1382 1380 1377 1375 1373 1372 1370
1483 1482 1480 1478 1477 1475 1472 1470 1467 1464 1457 1450 1449 1446 1443 1439 1434 1431 1426 1422 1417 1414 1410 1405 1401 1397 1392 1387 1383 1379 1375 1372 1369 1366 1364 1362 1360 1359
1479 1477 1476 1474 1471 1469 1466 1463 1461 1458 1453 1445 1441 1439 1435 1432 1427 1423 1419 1415 1410 1406 1401 1397 1392 1387 1383 1378 1374 1370 1366 1362 1358 1355 1353 1351 1349 1347
1475 1473 1471 1468 1466 1463 1460 1457 1454 1451 1447 1442 1435 1432 1428 1425 1420 1415 1411 1407 1402 1397 1393 1387 1382 1378 1373 1369 1364 1359 1355 1351 1347 1344 1342 1339 1337 1336
1470 1468 1466 1463 1460 1457 1454 1451 1448 1445 1441 1436 1430 1425 1421 1418 1414 1409 1402 1398 1393 1389 1383 1379 1374 1369 1363 1358 1353 1348 1344 1340 1337 1334 1332 1329 1327 1325
1466 1463 1461 1458 1455 1453 1450 1446 1443 1439 1435 1430 1425 1420 1415 1412 1408 1403 1397 1390 1384 1380 1374 1369 1364 1357 1352 1347 1343 1338 1334 1331 1328 1325 1322 1319 1316 1314
1460 1458 1455 1453 1450 1447 1445 1442 1439 1435 1430 1425 1420 1415 1410 1406 1402 1397 1391 1384 1375 1372 1367 1359 1356 1348 1343 1338 1334 1330 1326 1322 1318 1315 1311 1308 1306 1303
1455 1452 1449 1447 1444 1441 1438 1435 1432 1429 1426 1422 1415 1409 1405 1400 1396 1390 1385 1378 1371 1365 1361 1350 1346 1339 1335 1329 1325 1321 1317 1312 1308 1305 1302 1299 1296 1293
1450 1447 1444 1441 1439 1436 1432 1429 1425 1422 1419 1414 1409 1404 1399 1394 1390 1385 1379 1372 1364 1359 1356 1346 1337 1331 1324 1319 1316 1312 1308 1304 1300 1296 1292 1289 1286 1282
1445 1442 1440 1436 1433 1431 1427 1422 1417 1413 1410 1407 1402 1398 1393 1388 1385 1379 1372 1366 1357 1350 1348 1341 1331 1323 1313 1308 1305 1302 1299 1296 1291 1287 1283 1279 1276 1272
1439 1437 1434 1431 1428 1425 1421 1416 1411 1406 1402 1397 1393 1389 1385 1381 1377 1373 1367 1361 1353 1344 1339 1335 1326 1320 1305 1295 1295 1293 1289 1285 1282 1278 1274 1270 1266 1261
1434 1431 1428 1425 1423 1420 1416 1411 1406 1402 1397 1392 1387 1382 1378 1374 1370 1366 1361 1356 1349 1340 1335 1330 1322 1316 1311 1295 1285 1284 1281 1276 1272 1268 1265 1260 1256 1252
1430 1426 1423 1420 1417 1414 1410 1405 1402 1397 1392 1387 1382 1377 1372 1367 1362 1358 1353 1348 1342 1335 1329 1325 1318 1312 1305 1295 1284 1276 1273 1269 1265 1260 1255 1250 1246 1242
1426 1422 1419 1415 1412 1408 1404 1401 1397 1392 1387 1382 1377 1372 1367 1361 1356 1350 1345 1339 1334 1328 1323 1318 1312 1306 1301 1292 1282 1273 1266 1261 1258 1253 1247 1242 1236 1231
1421 1417 1414 1410 1407 1403 1400 1396 1392 1388 1383 1378 1372 1367 1361 1356 1350 1345 1338 1332 1324 1318 1316 1311 1305 1300 1293 1287 1279 1270 1263 1258 1251 1246 1240 1233 1227 1222
1417 1413 1409 1405 1402 1398 1395 1391 1387 1383 1378 1373 1368 1362 1356 1351 1345 1340 1333 1327 1320 1312 1306 1302 1298 1293 1287 1281 1273 1264 1258 1252 1246 1240 1233 1224 1217 1212
1414 1409 1406 1402 1398 1394 1390 1386 1383 1378 1374 1369 1363 1358 1352 1346 1340 1335 1329 1323 1316 1309 1302 1296 1290 1283 1277 1271 1267 1260 1253 1246 1239 1232 1226 1218 1208 1202
1411 1407 1403 1400 1396 1392 1388 1383 1379 1375 1370 1365 1360 1354 1349 1342 1336 1330 1324 1318 1312 1305 1299 1293 1287 1281 1274 1264 1257 1255 1249 1240 1232 1225 1219 1212 1203 1194
1408 1404 1401 1397 1393 1389 1385 1380 1375 1371 1366 1361 1356 1350 1345 1339 1332 1326 1320 1314 1308 1301 1295 1289 1284 1279 1273 1265 1254 1245 1243 1236 1227 1219 1210 1203 1195 1188
1406 1402 1399 1395 1391 1387 1382 1378 1373 1368 1363 1357 1352 1347 1341 1335 1329 1323 1317 1311 1305 1298 1292 1285 1280 1275 1269 1261 1252 1242 1235 1231 1224 1215 1205 1197 1188 1180
1403 1400 1396 1392 1388 1384 1379 1375 1370 1365 1359 1354 1348 1343 1337 1331 1325 1320 1314 1308 1302 1296 1289 1282 1276 1270 1264 1258 1249 1240 1230 1223 1217 1210 1203 1195 1188 1178
1401 1397 1393 1390 1386 1381 1377 1372 1367 1362 1356 1351 1345 1339 1334 1328 1322 1317 1311 1306 1299 1293 1287 1279 1273 1266 1260 1254 1247 1238 1229 1221 1212 1204 1197 1190 1184 1177